Terminal Aerodrome Forecast
Issued by NWS Blacksburg, VA

Current Version | Previous Version | Graphics & Text | Print | Product List | Glossary On
Versions: 1 2 3 4 5 6 7 8 9 10 11 12 13 14 15
000
FTUS41 KRNK 272136 AAB
TAFBLF
TAF AMD
KBLF 272136Z 2722/2818 21009G17KT P6SM VCTS BKN040CB
      TEMPO 2722/2723 3SM SHRA BR OVC030
     FM280000 24006KT P6SM SCT040
     FM280400 26003KT P6SM BKN020
     FM281100 17006KT P6SM FEW250=

USA.gov is the U.S. government's official web portal to all federal, state and local government web resources and services.